Wildwood, NJ

1:48 AM EDT on May 21, 2018 (GMT -0400)
Cape May County

Weather History for KWWD - May, 2013

Change the Weather History Date:

Saturday, May 18, 2013

  Actual Average Record
Temperature  
Mean Temperature 60 °F -  
Max Temperature 62 °F 67 °F 88 °F (2017)
Min Temperature 57 °F 52 °F 44 °F (2005)
Degree Days  
Heating Degree Days 6    
Growing Degree Days 10 (Base 50)    
Moisture  
Dew Point 53 °F    
Average Humidity 78    
Maximum Humidity 88    
Minimum Humidity 68    
Precipitation  
Precipitation 0.32 in - - ()
Sea Level Pressure  
Sea Level Pressure 30.25 in    
Wind  
Wind Speed 8 mph (SE)    
Max Wind Speed 15 mph    
Max Gust Speed 20 mph    
Averages and records for this station are not official NWS values.
T = Trace of Precipitation, MM = Missing Value Source: NWS Daily Summary

Daily Weather History Graph

Daily Weather History Graph

Search for Another Location

Airport or City:

Astronomy

May. 18, 2013 Rise Set
Actual Time 5:44 AM EDT 8:08 PM EDT
Civil Twilight 5:13 AM EDT 8:38 PM EDT
Nautical Twilight 4:36 AM EDT 9:16 PM EDT
Astronomical Twilight 3:54 AM EDT 9:58 PM EDT
Moon 1:12 PM EDT (5/18) 1:31 AM EDT (5/18)
Length of Visible Light 15h 25m
Length of Day
14h 24m
First Quarter, 55% of the Moon is Illuminated
May 18
First Quarter
May 25
Full
May 31
Last Quarter
Jun 8
New
Jun 16
First Quarter

Hourly Weather History & Observations

Time (EDT) Temp. Dew Point Humidity Pressure Visibility Wind Dir Wind Speed Gust Speed Precip Events Conditions
12:35 AM - - N/A% 30.21 in - SE 9.2 mph - N/A   Overcast
12:55 AM - - N/A% 30.21 in - SSE 8.1 mph - N/A   Unknown
1:15 AM - - N/A% 30.21 in - SE 8.1 mph - N/A   Unknown
1:35 AM - - N/A% 30.21 in - SE 6.9 mph - N/A   Unknown
1:55 AM - - N/A% 30.20 in - SE 6.9 mph - N/A   Overcast
2:15 AM - - N/A% 30.20 in - SE 6.9 mph - N/A   Overcast
2:35 AM - - N/A% 30.20 in - SE 6.9 mph - N/A   Overcast
2:55 AM - - N/A% 30.20 in - SSE 8.1 mph - N/A   Overcast
3:15 AM 60.8 °F 50.0 °F 68% 30.21 in - SSE 6.9 mph - N/A   Mostly Cloudy
3:35 AM 60.8 °F 50.0 °F 68% 30.21 in - SSE 8.1 mph - N/A   Overcast
3:55 AM 60.8 °F 50.0 °F 68% 30.22 in - SSE 5.8 mph - N/A   Overcast
4:15 AM 59.0 °F 51.8 °F 77% 30.23 in - South 4.6 mph - N/A   Overcast
4:35 AM - - N/A% 30.22 in - SSE 4.6 mph - N/A   Mostly Cloudy
4:55 AM - - N/A% 30.23 in - SE 3.5 mph - N/A   Mostly Cloudy
5:15 AM 57.2 °F 51.8 °F 82% 30.24 in - SSE 4.6 mph - N/A   Mostly Cloudy
5:35 AM 57.2 °F 51.8 °F 82% 30.25 in - SSE 3.5 mph - N/A   Mostly Cloudy
5:55 AM - - N/A% 30.25 in - SE 3.5 mph - N/A   Unknown
6:15 AM 57.2 °F 51.8 °F 82% 30.26 in - SE 3.5 mph - N/A   Mostly Cloudy
6:35 AM 59.0 °F 51.8 °F 77% 30.26 in - SE 3.5 mph - N/A   Overcast
6:55 AM 59.0 °F 51.8 °F 77% 30.26 in - SE 4.6 mph - N/A   Overcast
7:15 AM - - N/A% 30.26 in - ESE 5.8 mph - N/A   Overcast
7:35 AM 60.8 °F 51.8 °F 72% 30.27 in - SE 6.9 mph - N/A   Mostly Cloudy
7:55 AM - - N/A% 30.27 in - SE 9.2 mph - N/A   Mostly Cloudy
8:15 AM 62.6 °F 53.6 °F 72% 30.27 in - SE 6.9 mph - N/A   Overcast
8:35 AM - - N/A% 30.27 in - SE 9.2 mph - N/A   Unknown
8:55 AM - - N/A% 30.28 in - SE 10.4 mph - N/A   Unknown
9:15 AM - - N/A% 30.29 in - SE 10.4 mph - N/A   Unknown
9:35 AM - - N/A% 30.29 in - SE 15.0 mph - N/A   Unknown
9:55 AM - - N/A% 30.28 in - SE 11.5 mph - N/A   Unknown
10:15 AM - - N/A% 30.29 in - SE 13.8 mph 18.4 mph N/A   Unknown
10:35 AM - - N/A% 30.29 in - ESE 12.7 mph - N/A   Unknown
10:55 AM - - N/A% 30.29 in - ESE 11.5 mph - N/A   Unknown
11:15 AM - - N/A% 30.29 in - ESE 10.4 mph - N/A   Mostly Cloudy
11:35 AM - - N/A% 30.29 in - ESE 9.2 mph - N/A   Unknown
11:55 AM - - N/A% 30.29 in - SE 10.4 mph - N/A   Unknown
12:15 PM - - N/A% 30.28 in - SE 12.7 mph - N/A   Unknown
12:35 PM - - N/A% 30.28 in - ESE 15.0 mph 18.4 mph N/A   Unknown
12:55 PM - - N/A% 30.29 in - ESE 11.5 mph - N/A   Overcast
1:15 PM - - N/A% 30.28 in - East 8.1 mph - N/A   Overcast
1:35 PM - - N/A% 30.27 in - ESE 11.5 mph - N/A   Overcast
1:55 PM - - N/A% 30.26 in - SE 15.0 mph - N/A   Mostly Cloudy
2:15 PM - - N/A% 30.26 in - ESE 11.5 mph - N/A   Overcast
2:35 PM - - N/A% 30.25 in - ESE 13.8 mph 19.6 mph N/A   Overcast
3:15 PM - - N/A% 30.25 in - ESE 12.7 mph - N/A   Overcast
3:35 PM - - N/A% 30.26 in - ESE 9.2 mph - N/A   Overcast
3:55 PM - - N/A% 30.25 in - ESE 9.2 mph - N/A   Overcast
4:15 PM - - N/A% 30.26 in - SE 10.4 mph - N/A   Overcast
4:35 PM - - N/A% 30.25 in - East 10.4 mph - N/A   Overcast
4:55 PM - - N/A% 30.26 in - ESE 9.2 mph - N/A   Unknown
5:15 PM - - N/A% 30.26 in - ESE 8.1 mph - N/A   Unknown
5:35 PM - - N/A% 30.26 in - ESE 8.1 mph - N/A   Overcast
6:15 PM - - N/A% 30.27 in - East 6.9 mph - N/A   Overcast
6:35 PM - - N/A% 30.27 in - ESE 6.9 mph - N/A   Overcast
6:55 PM - - N/A% 30.26 in - ESE 6.9 mph - N/A   Overcast
7:15 PM 60.8 °F 53.6 °F 77% 30.27 in - ESE 6.9 mph - N/A   Overcast
7:35 PM - - N/A% 30.27 in - ESE 9.2 mph - N/A   Overcast
7:55 PM - - N/A% 30.27 in - East 6.9 mph - N/A   Overcast
8:15 PM 59.0 °F 53.6 °F 82% 30.27 in - East 6.9 mph - N/A   Overcast
8:35 PM 59.0 °F 55.4 °F 88% 30.27 in - East 8.1 mph - N/A   Overcast
8:55 PM 59.0 °F 55.4 °F 88% - - ESE 8.1 mph - N/A   Unknown
9:15 PM 59.0 °F 55.4 °F 88% - - ESE 10.4 mph - 0.01 in   Unknown
9:35 PM - - N/A% 30.22 in - ESE 11.5 mph 17.3 mph 0.01 in   Unknown
9:55 PM - - N/A% - - ESE 10.4 mph - 0.03 in   Unknown
10:15 PM - - N/A% 30.23 in - ESE 11.5 mph - 0.01 in   Unknown
10:35 PM - - N/A% 30.22 in - ESE 12.7 mph 18.4 mph 0.14 in   Overcast
10:55 PM - - N/A% 30.22 in - ESE 12.7 mph 18.4 mph 0.20 in   Unknown
11:15 PM - - N/A% - - ESE 10.4 mph 18.4 mph 0.04 in   Overcast
11:35 PM 60.8 °F 55.4 °F 82% 30.22 in - ESE 10.4 mph 18.4 mph 0.06 in   Overcast
11:55 PM - - N/A% 30.22 in - ESE 11.5 mph - 0.09 in   Overcast